User: anonymous   Login
Location: Brantley
(31.5822°N, 86.2569°W)
Time: 08:31:49
(UTC+00:00)
Language:

Tiros 1 - Orbit

View from above orbital plane
View from above orbital plane
View from above satellite
View from above satellite

Ground track
Ground track

The orbit is defined by the following mean orbital elements,

1 00029U          26046.90762093 +.00000000 +00000-0 +13283-3 0 00008
2 00029  48.3768 240.9484 0021906 106.9309 253.4008 14.78580891    09
Epoch (UTC): 15 February 2026 21:46:58
Eccentricity: 0.0021906
inclination: 48.3768°
perigee height: 618 km
apogee height: 649 km
right ascension of ascending node: 240.9484°
argument of perigee: 106.9309°
revolutions per day: 14.78580891
mean anomaly at epoch: 253.4008°

The dashed part of the orbit path shows where the satellite is in the earth's shadow,  

DLR